Hourly Weather Roundup
Issued by NWS Central Illinois

Home | Current Version | Previous Version | Text Only | Print | Product List | Glossary On
Versions: 1 2 3 4 5 6 7 8 9 10 11 12 13 14 15 16 17 18 19 20 21 22 23 24 25 26 27 28 29 30 31 32 33 34 35 36 37 38 39 40 41 42 43 44 45 46 47 48 49 50
000
NZUS43 KILX 042010
HWRILX

AREA WEATHER ROUNDUP
NATIONAL WEATHER SERVICE, LINCOLN IL
300 PM CDT WED MAY 04 2016


CITY           SKY/WX    TMP DP  RH WIND       PRES   REMARKS
BLOOMINGTON    CLOUDY    55  41  59 NW21      29.83R
CHAMPAIGN      CLOUDY    56  40  55 NW23G30   29.79R
DANVILLE       CLOUDY    53  42  68 N16       29.75S
DECATUR        CLOUDY    58  38  47 NW17G32   29.82R
EFFINGHAM      PTSUNNY   61  48  64 NW21G31   29.80F
FLORA          PTSUNNY   58  42  55 N20G36    29.80R
GALESBURG      PTSUNNY   60  38  43 NW16G24   29.86S
JACKSONVILLE   PTSUNNY   62  37  38 N20G25    29.85S
LACON          CLOUDY    56  38  50 NW15G22   29.83S
LAWRENCEVILLE  PTSUNNY   62  43  49 N20G25    29.76R
LITCHFIELD     PTSUNNY   61  42  50 NW21G26   29.83S
$$


CITY           SKY/WX    TMP DP  RH WIND       PRES   REMARKS
LINCOLN        CLOUDY    57  41  55 N14G25    29.84R
MACOMB         CLOUDY    62  36  38 NW24G30   29.89S
MATTOON        PTSUNNY   59  43  55 N24G31    29.78R
MT CARMEL AP   LGT RAIN  55  43  62 NW22G35   29.76R
OLNEY-NOBLE AP CLOUDY    57  45  62 NW18G25   29.79R
PARIS          CLOUDY    58  44  61 NW10G20   29.77S
PEORIA         CLOUDY    57  36  45 N10G21    29.85R
PONTIAC        CLOUDY    55  44  64 N20       29.82S
RANTOUL        PTSUNNY   59  42  52 N16G24    29.79R
ROBINSON       PTSUNNY   58  44  60 NW17G24   29.77R
SPRINGFIELD    CLOUDY    60  41  49 N17G29    29.84S
TAYLORVILLE    CLOUDY    58  42  56 NW23G30   29.83R
$$

...REGIONAL REPORTS...


CITY           SKY/WX    TMP DP  RH WIND       PRES   REMARKS
CHICAGO O`HARE CLOUDY    50  36  58 N17       29.79S
KANKAKEE       CLOUDY    52  37  56 NW15G26   29.80R
MOLINE         MOSUNNY   61  34  36 N13G22    29.84F
MOUNT STERLING PTSUNNY   62  37  40 NW15G25   29.87S
MOUNT VERNON   PTSUNNY   64  39  39 N6        29.81S
PITTSFIELD     PTSUNNY   63  43  47 N20G25    29.88S
QUINCY         MOSUNNY   64  37  36 N16G26    29.89R
ROCKFORD       CLOUDY    57  38  48 N17G25    29.83S
$$


CITY           SKY/WX    TMP DP  RH WIND       PRES   REMARKS
BURLINGTON     MOSUNNY   62  38  40 N17G30    29.88S
CEDAR RAPIDS   MOSUNNY   62  34  35 N20G30    29.88F
DES MOINES     MOSUNNY   67  31  26 N16G23    29.96F
KIRKSVILLE     SUNNY     65  36  34 N17G28    29.94S
OTTUMWA        SUNNY     64  36  35 NW22G31   29.93F
ST LOUIS       MOSUNNY   68  40  35 N16G26    29.84R
$$


CITY           SKY/WX    TMP DP  RH WIND       PRES   REMARKS
TERRE HAUTE    PTSUNNY   58  44  60 N16       29.75S
EVANSVILLE     LGT RAIN  62  42  47 NW8       29.75R
INDIANAPOLIS   PTSUNNY   54  40  59 NW18      29.72F
LAFAYETTE      PTSUNNY   53  39  59 N17G26    29.76R
MADISON        PTSUNNY   56  32  40 N15G24    29.81S
MILWAUKEE      CLOUDY    46  37  71 N12       29.80S
$$





USA.gov is the U.S. government's official web portal to all federal, state and local government web resources and services.